Location: Gilevgi
(36.8751°N, 30.0581°E)
Time: 05:48:16
(UTC+00:00)

Okean 1-7 Rocket - Pass Details

Date: 18 March 2026
Orbit: 609 x 643 km, 82.5° (Epoch: 15 April)

Event Time Altitude Azimuth Distance (km) Brightness Sun altitude
Rises 02:56:38 0° 358° (N) 2,915 7.1 -14.8°
Reaches altitude 10° 02:58:56 10° 4° (N) 1,999 6.3 -14.3°
Maximum altitude 03:03:14 50° 80° (E) 788 4.6 -13.5°
Drops below altitude 10° 03:07:28 10° 157° (SSE) 1,966 6.3 -12.6°
Sets 03:09:43 0° 162° (SSE) 2,863 7.1 -12.2°
